SCP
0 0 0 0 0 0 0 0 0 0 0 0 0 0 0 0 0 0 0 0 0 0 0 0 0 0 0 0 0 0 0 0 0 0 0 0 0 0 0 0 0 1 1 1
0 0 0 0 0 0 0 0 0 0 0 0 0 0 0 0 0 0 0 0 0 0 0 0 0 0 0 0 0 0 0 0 0 0 0 0 0 0 0 0 0 1 1 1
0 0 0 0 0 0 0 0 0 0 0 0 0 0 0 0 0 0 0 0 0 0 0 0 0 0 0 0 0 0 0 0 0 0 0 0 0 0 0 0 1 1 1 1
0 0 0 0 0 0 0 0 0 0 0 0 0 0 0 0 0 0 0 0 0 0 0 0 0 0 0 0 0 0 0 0 0 0 0 0 0 0 0 0 1 1 1 1
0 0 0 0 0 0 0 0 0 0 0 0 0 0 0 0 0 0 0 0 0 0 0 0 0 0 0 0 0 0 0 0 0 0 0 0 0 0 0 0 1 1 1 1
0 0 0 0 0 0 0 0 0 0 0 0 0 0 0 0 0 0 0 0 0 0 0 0 0 0 0 0 0 0 0 0 0 0 0 0 0 0 0 0 1 1 1 1
0 0 0 0 0 0 0 0 0 0 0 0 0 0 0 0 0 0 0 0 0 0 0 0 0 0 0 0 0 0 0 0 0 0 0 0 0 0 0 0 0 0 0 0
0 0 0 0 0 0 0 0 0 0 0 0 0 0 0 0 0 0 0 0 0 0 0 0 0 0 0 0 0 0 0 0 0 0 0 0 0 0 0 0 0 0 0 0
0 0 0 0 0 0 0 0 0 0 0 0 0 0 0 0 0 0 0 0 0 0 0 0 0 0 0 0 0 0 0 0 0 0 0 0 0 0 0 0 0 0 0 0
0 0 0 0 0 0 0 0 0 0 0 0 0 0 0 0 0 0 0 0 0 0 0 0 0 0 0 0 0 0 0 0 0 0 0 0 0 0 0 0 0 0 0 0
0 0 0 0 0 0 0 0 0 0 0 0 0 0 0 0 0 0 0 0 0 0 0 0 0 0 0 0 0 0 0 0 0 0 0 0 0 0 0 0 0 0 0 0
0 0 0 0 0 0 0 0 0 0 0 0 0 0 0 0 0 0 0 0 0 0 0 0 0 0 0 0 0 0 0 0 0 0 0 0 0 0 0 0 0 0 0 0
0 0 0 0 0 0 0 0 0 0 0 0 0 0 0 0 0 0 0 0 0 0 0 0 0 0 0 0 0 0 0 0 0 0 0 0 0 0 0 0 0 0 0 0
0 0 0 0 0 0 0 0 0 0 0 0 0 0 0 0 0 0 0 0 0 0 0 0 0 0 0 0 0 0 0 0 0 0 0 0 0 0 0 0 0 0 0 0
0 0 0 0 0 0 0 0 0 0 0 0 0 0 0 0 0 0 0 0 0 0 0 0 0 0 0 0 0 0 0 0 0 0 0 0 0 0 0 0 0 0 0 0
0 0 0 0 0 0 0 0 0 0 0 0 0 0 0 0 0 0 0 0 0 0 0 0 0 0 0 0 0 0 0 0 0 0 0 0 0 0 0 0 0 0 0 0
0 0 0 0 0 0 0 0 0 0 0 0 0 0 0 0 0 0 0 0 0 0 0 0 0 0 0 0 0 0 0 0 0 0 0 0 0 0 0 0 0 0 0 0
0 0 0 0 0 0 0 0 0 0 0 0 0 0 0 0 0 0 0 0 0 0 0 0 0 0 0 0 0 0 0 0 0 0 0 0 0 0 0 0 0 0 0 0
0 0 0 0 0 0 0 0 0 0 0 0 0 0 0 0 0 0 0 0 0 0 0 0 0 0 0 0 0 0 0 0 0 0 0 0 0 0 0 0 0 0 0 0
0 0 0 0 0 0 0 0 0 0 0 0 0 0 0 0 0 0 0 0 0 0 0 0 0 0 0 0 0 0 0 0 0 0 0 0 0 0 0 0 0 0 0 0
0 0 0 0 0 0 0 0 0 0 0 0 0 0 0 0 0 0 0 0 0 0 0 0 0 0 0 0 0 0 0 0 0 0 0 0 0 0 0 0 0 0 0 0
0 0 0 0 0 0 0 0 0 0 0 0 0 0 0 0 0 0 0 0 0 0 0 0 0 0 0 0 0 0 0 0 0 0 0 0 0 0 0 0 0 0 0 0
0 0 0 0 0 -0 0 0 0 0 0 0 0 0 0 0 0 0 0 0 0 0 0 0 0 0 0 0 0 0 0 0 0 0 0 0 0 0 0 0 0 0 0 0
0 0 0 0 0 -0 -0 -0 0 0 0 0 0 0 0 0 0 0 0 0 0 0 0 0 0 0 0 0 0 0 0 0 0 0 0 0 0 0 0 0 0 0 0 0
0 0 0 0 0 0 -0 -0 -0 0 0 0 0 0 0 0 0 0 0 0 0 0 0 0 0 0 0 0 0 0 0 0 0 0 0 0 0 0 0 0 0 0 0 0
0 0 0 0 0 0 0 0 0 -0 -0 0 0 0 0 0 0 0 0 0 0 0 0 0 0 0 0 0 0 0 0 0 0 0 0 0 0 0 0 0 0 0 0 0
0 0 0 0 0 0 0 0 0 -0 -0 -0 0 0 0 0 0 0 0 0 0 0 0 0 0 0 0 0 0 0 0 0 0 0 0 0 0 0 0 0 0 0 0 0
Wind_Speed
10 10 8 11 12 10 13 12 12 13 13 19 11 10 10 9 8 7 7 7 7 7 6 5 5 4 4 4 3 3 2 2 2 2 2 1 1 1 1 1 1 1 1 1
8 7 9 14 16 16 16 15 17 17 21 17 10 7 8 9 8 9 9 8 8 7 6 6 6 5 4 4 3 3 3 3 3 2 2 2 2 2 1 1 1 1 1 1
8 6 7 13 12 13 9 9 10 16 17 8 7 7 8 8 8 9 9 8 7 8 8 7 6 6 6 5 3 3 4 3 3 3 3 2 2 2 2 1 1 1 1 1
5 5 10 9 3 6 8 10 12 12 11 7 9 9 8 8 8 9 8 7 7 7 7 6 5 5 4 3 4 4 4 4 4 3 3 3 2 2 2 2 2 1 1 1
3 5 12 10 4 5 6 9 9 13 13 10 6 6 7 6 6 8 8 7 7 6 6 5 5 5 4 4 4 5 5 5 5 5 4 4 4 3 2 2 2 2 2 2
4 5 10 8 2 2 1 7 4 6 8 6 1 4 7 5 4 6 6 5 5 4 4 5 5 5 6 6 6 7 7 6 5 5 5 5 4 3 2 2 2 2 1 2
8 9 12 9 2 2 3 7 2 4 5 4 6 8 7 6 6 6 6 6 4 4 5 5 5 6 6 6 8 7 5 4 4 5 5 5 4 3 3 3 2 2 1 1
7 9 14 5 5 7 9 5 4 4 5 6 8 9 9 8 7 7 6 6 4 4 5 4 5 7 7 8 7 5 5 5 5 5 4 4 4 3 3 3 3 2 1 1
11 12 7 5 9 8 4 6 7 6 7 7 8 9 9 9 8 7 7 6 5 5 5 4 5 7 9 8 5 6 6 6 5 5 4 4 5 4 3 3 3 2 2 2
10 13 12 11 11 11 9 10 11 10 9 8 10 11 11 10 9 8 7 7 5 5 6 6 6 7 9 6 6 7 7 6 6 5 5 4 4 4 4 4 4 3 3 3
13 13 11 12 12 13 12 11 11 11 10 10 11 12 11 10 10 8 7 7 6 6 7 8 6 7 7 6 7 7 7 6 6 6 6 5 4 4 5 4 5 5 4 3
16 12 10 12 9 9 10 11 12 12 12 10 10 12 11 11 9 8 8 7 6 7 8 8 6 7 6 7 8 8 7 7 6 5 5 5 4 3 5 6 7 8 7 5
19 15 14 15 13 12 12 13 12 12 13 13 11 10 10 10 9 8 8 8 9 9 8 7 7 7 6 7 8 9 8 8 6 6 6 6 5 5 4 3 6 7 8 8
15 13 15 15 16 14 13 14 13 12 11 11 11 9 9 9 8 9 9 9 8 7 7 7 7 8 7 7 8 8 8 8 7 6 6 6 6 5 5 5 4 3 4 7
14 13 14 14 13 13 11 10 11 12 11 10 9 9 9 9 10 10 9 6 6 6 7 7 7 8 6 7 8 8 7 6 6 5 5 5 5 5 5 5 4 3 2 3
11 11 11 12 13 13 11 10 11 12 11 10 9 9 9 9 9 8 7 5 6 8 8 8 8 7 6 7 8 6 6 9 8 6 6 6 5 5 5 5 5 4 4 4
10 11 10 11 12 12 11 11 11 12 10 10 11 9 8 7 7 7 7 7 7 8 7 7 8 6 6 8 8 6 5 7 10 7 6 6 6 6 6 5 5 5 5 5
10 11 11 11 11 12 11 10 10 10 10 10 9 7 7 7 8 9 7 5 5 5 6 6 6 5 6 7 7 6 6 6 6 6 6 6 6 6 5 5 5 5 4 4
8 9 10 10 10 10 10 10 10 9 9 7 7 8 8 8 8 7 5 4 5 7 6 5 7 6 6 7 8 5 6 6 6 5 5 8 7 5 5 5 5 5 5 4
8 8 9 9 9 8 9 9 9 9 8 6 6 7 7 7 6 5 5 6 6 5 4 4 5 5 6 7 9 6 7 7 7 6 6 6 6 6 6 6 5 5 5 5
9 9 9 9 9 8 8 8 8 9 8 6 6 7 7 6 4 4 4 6 5 4 4 6 4 4 5 6 9 6 6 6 7 6 6 6 6 6 6 6 6 6 6 5
8 8 9 9 9 9 8 7 7 8 7 6 6 6 5 5 4 4 6 5 4 5 3 3 3 6 7 8 5 6 6 6 6 6 6 6 6 6 6 6 6 6 5 5
9 9 9 9 9 9 9 7 7 6 7 7 6 6 6 5 4 4 5 4 3 5 4 4 6 9 10 6 5 6 7 7 6 6 6 6 6 6 6 6 6 5 5 5
10 10 9 9 7 8 9 9 7 6 7 7 6 6 5 4 4 4 4 4 6 6 4 5 8 9 9 5 5 6 6 6 6 6 5 5 5 5 5 5 5 5 5 6
10 10 9 8 8 7 8 8 7 6 6 5 6 5 4 4 4 4 3 4 6 5 3 5 8 9 6 4 5 5 5 6 6 6 5 5 5 5 5 5 5 5 5 5
9 9 8 8 8 7 6 5 5 5 5 5 5 4 3 3 3 3 3 4 5 5 3 3 4 5 4 4 5 5 5 5 6 6 5 5 5 5 5 5 6 5 5 5
9 8 7 7 7 6 6 5 6 6 5 5 5 4 3 3 3 3 3 3 3 3 2 3 3 3 4 4 4 4 4 4 4 5 5 5 5 5 5 6 5 4 4 4
Wind_Direction
255 261 255 252 249 228 221 224 235 253 257 269 274 274 278 277 275 269 264 258 247 243 241 237 235 236 235 238 234 214 196 200 208 200 186 182 176 175 154 141 141 131 119 118
274 264 263 266 255 239 237 236 243 260 271 270 271 265 270 274 272 269 265 259 252 245 241 236 231 229 227 231 226 207 204 211 203 187 181 183 186 172 148 143 132 133 144 137
277 296 305 271 244 219 218 218 214 239 253 275 285 274 268 270 269 264 264 260 252 244 238 234 229 220 219 221 208 201 210 213 204 192 186 189 186 168 170 170 153 154 163 162
285 322 259 250 212 197 223 243 225 241 257 262 259 273 272 260 255 264 264 259 254 247 239 233 222 215 212 203 197 200 207 209 204 192 190 188 182 189 196 179 174 183 193 189
258 276 278 289 259 195 214 270 231 233 254 268 287 308 291 258 239 249 255 254 252 243 233 224 215 204 190 200 200 202 209 208 203 194 189 186 190 196 191 176 178 184 187 183
222 250 258 260 255 187 145 284 257 214 250 267 302 303 282 282 273 269 263 259 259 249 228 222 213 185 187 202 204 212 213 208 197 191 189 190 193 190 178 171 182 178 183 184
228 246 264 259 240 130 211 255 268 210 239 230 221 240 268 292 287 271 267 264 258 243 229 225 198 181 198 206 216 217 203 193 189 189 190 188 182 177 169 168 172 179 191 214
204 229 253 228 158 198 230 264 274 259 248 243 252 269 279 281 277 276 276 272 258 242 241 228 194 189 206 218 218 195 187 190 189 186 186 179 172 174 169 167 173 187 187 229
209 228 250 210 218 240 256 269 272 268 266 262 267 271 276 276 272 268 263 262 254 240 246 238 207 199 215 223 194 180 185 191 189 183 182 174 173 174 169 170 178 191 193 216
255 260 261 261 259 265 259 256 264 266 269 265 264 270 272 273 270 263 258 253 248 239 242 245 225 215 223 216 184 181 189 191 185 180 182 179 178 178 178 182 187 192 201 214
257 267 280 266 254 257 263 263 265 267 264 260 262 267 266 268 265 258 255 251 239 233 238 245 233 224 221 203 183 188 192 191 186 184 183 185 188 192 193 199 191 190 202 204
253 251 251 268 270 265 266 267 267 271 275 267 254 260 264 264 260 253 249 245 241 239 238 241 232 229 221 200 189 188 193 194 191 185 183 182 183 197 214 207 211 214 213 207
254 265 264 271 275 274 271 272 269 266 267 271 267 258 259 262 260 252 246 239 237 239 237 234 228 228 220 198 192 195 199 195 188 185 184 184 184 187 195 209 215 219 222 224
257 266 271 271 274 277 273 271 271 270 265 262 265 263 259 259 259 252 247 242 238 237 235 230 227 231 218 194 194 200 201 197 189 187 186 187 189 189 187 187 196 215 221 222
259 254 259 270 276 279 279 278 277 276 273 269 262 258 256 254 254 253 251 241 233 232 232 226 228 235 211 191 194 199 197 195 189 184 183 184 183 183 186 190 196 197 191 212
272 270 267 270 272 277 280 278 274 275 273 269 266 260 254 252 253 255 249 227 222 231 231 225 229 228 200 192 194 197 201 198 186 181 180 181 182 185 191 194 196 196 201 202
277 279 278 279 278 279 278 273 271 273 273 268 264 261 258 255 255 253 248 233 229 235 232 226 230 219 194 192 191 194 192 192 187 183 187 187 187 191 193 194 199 203 207 203
261 265 269 271 276 282 283 279 274 273 269 266 264 259 252 246 246 247 246 241 239 247 241 231 225 210 197 193 191 188 184 184 185 188 188 189 190 191 191 196 201 203 201 204
282 281 284 281 278 279 281 282 281 277 275 269 260 254 250 248 246 245 236 224 230 246 246 225 215 205 202 199 189 184 182 183 186 188 186 192 193 190 192 196 199 200 195 192
294 294 292 289 287 283 283 284 286 285 279 268 260 258 258 254 243 232 223 229 230 232 226 215 209 207 205 199 188 185 185 186 187 186 185 189 191 193 194 196 198 198 197 198
296 296 294 291 292 290 285 285 285 283 280 267 252 250 253 251 233 219 223 248 249 227 222 219 210 204 198 193 187 185 186 187 188 188 188 191 192 194 196 197 199 199 200 200
290 289 289 290 292 294 292 287 282 280 278 269 259 252 250 247 233 230 232 239 242 223 216 214 210 207 201 193 187 186 187 188 189 188 190 192 193 196 198 199 200 200 200 198
285 285 287 288 287 289 292 288 281 276 270 263 257 250 244 241 225 227 253 244 227 221 215 218 218 212 204 193 188 188 188 189 191 193 194 194 196 196 197 197 198 197 196 196
281 282 282 282 282 285 287 286 282 272 263 260 254 245 236 237 243 232 236 237 234 231 228 223 218 212 201 191 188 190 190 191 193 193 192 192 193 193 194 194 195 195 193 192
274 276 278 279 279 276 274 277 281 277 269 265 262 253 239 224 228 237 230 233 232 229 228 221 214 207 194 186 190 192 192 193 191 188 190 191 193 193 192 191 192 191 190 192
269 269 268 263 264 269 270 269 270 270 265 267 268 258 245 235 229 228 225 227 226 219 216 209 197 191 186 189 192 192 192 194 195 193 189 189 191 191 189 189 189 191 191 191
266 264 264 265 262 254 252 253 257 260 253 249 260 257 241 232 226 221 216 214 212 208 205 197 186 184 185 187 188 189 189 189 186 184 183 185 186 189 188 187 187 186 183 181